Weather History for Fort Polk, LA

Change the Weather History Date:

Saturday, April 6, 2013

  Actual Average (KPOE) Record (KPOE)
Temperature  
Mean Temperature 61 °F -  
Max Temperature 72 °F 73 °F 82 °F (1999)
Min Temperature 50 °F 54 °F 44 °F (1998)
Degree Days  
Heating Degree Days 4    
Growing Degree Days 11 (Base 50)    
Moisture  
Dew Point 49 °F    
Average Humidity 67    
Maximum Humidity 86    
Minimum Humidity 47    
Precipitation  
Precipitation 0.00 in - - ()
Sea Level Pressure  
Sea Level Pressure 30.06 in    
Wind  
Wind Speed 8 mph (South)    
Max Wind Speed 17 mph    
Max Gust Speed 24 mph    
Visibility 10 miles    
Events      
Averages and records for this station are not official NWS values.
T = Trace of Precipitation, MM = Missing Value Source: NWS Daily Summary

Daily Weather History Graph

Daily Weather History Graph

Search for Another Location

Airport:

Trip Planner

Search our weather history database for the weather conditions in past years. The results will help you decide how hot, cold, wet, or windy it might be!

Date:

Astronomy

Apr. 06, 2013 Rise Set
Actual Time 6:54 AM CDT 7:35 PM CDT
Civil Twilight 6:30 AM CDT 7:59 PM CDT
Nautical Twilight 6:01 AM CDT 8:28 PM CDT
Astronomical Twilight 5:32 AM CDT 8:58 PM CDT
Moon 4:24 AM CDT (4/6) 4:16 PM CDT (4/6)
Length of Visible Light 13h 29m
Length of Day
12h 40m
Waning Crescent, 15% of the Moon is Illuminated
Apr 6
Waning Crescent
Apr 10
New
Apr 18
First Quarter
Apr 25
Full
May 2
Last Quarter

Hourly Weather History & Observations

Time (CDT) Temp. Dew Point Humidity Pressure Visibility Wind Dir Wind Speed Gust Speed Precip Events Conditions
12:53 AM 54.0 °F 45.0 °F 72% 30.12 in 10.0 mi SE 5.8 mph - N/A   Clear
1:53 AM 52.0 °F 45.0 °F 77% 30.12 in 10.0 mi SE 5.8 mph - N/A   Clear
2:53 AM 52.0 °F 46.0 °F 80% 30.10 in 10.0 mi SSE 4.6 mph - N/A   Clear
3:53 AM 52.0 °F 46.0 °F 80% 30.08 in 10.0 mi SE 5.8 mph - N/A   Clear
4:53 AM 50.0 °F 46.0 °F 86% 30.07 in 10.0 mi SSE 4.6 mph - N/A   Clear
5:53 AM 51.1 °F 46.9 °F 86% 30.06 in 10.0 mi SSE 5.8 mph - N/A   Clear
6:53 AM 51.1 °F 46.0 °F 83% 30.08 in 10.0 mi SSE 3.5 mph - N/A   Clear
7:53 AM 51.1 °F 46.0 °F 83% 30.09 in 10.0 mi SSE 3.5 mph - N/A   Clear
8:53 AM 55.0 °F 46.9 °F 74% 30.12 in 10.0 mi South 5.8 mph - N/A   Clear
9:53 AM 61.0 °F 46.9 °F 60% 30.11 in 10.0 mi South 13.8 mph 23.0 mph N/A   Clear
10:53 AM 64.9 °F 48.9 °F 56% 30.11 in 10.0 mi SSE 11.5 mph 19.6 mph N/A   Clear
11:53 AM 66.9 °F 48.0 °F 51% 30.10 in 10.0 mi South 12.7 mph 21.9 mph N/A   Clear
12:53 PM 70.0 °F 48.9 °F 47% 30.09 in 10.0 mi SSE 12.7 mph 20.7 mph N/A   Clear
1:53 PM 71.1 °F 50.0 °F 47% 30.05 in 10.0 mi South 16.1 mph 21.9 mph N/A   Clear
2:53 PM 72.0 °F 51.1 °F 48% 30.03 in 10.0 mi SSW 12.7 mph 23.0 mph N/A   Partly Cloudy
3:53 PM 71.1 °F 51.1 °F 49% 30.01 in 10.0 mi SSW 11.5 mph 20.7 mph N/A   Partly Cloudy
4:53 PM 71.1 °F 50.0 °F 47% 30.00 in 10.0 mi SSW 13.8 mph 19.6 mph N/A   Clear
5:53 PM 70.0 °F 50.0 °F 49% 29.99 in 10.0 mi South 17.3 mph 24.2 mph N/A   Scattered Clouds
6:53 PM 68.0 °F 51.1 °F 55% 29.99 in 10.0 mi South 9.2 mph - N/A   Mostly Cloudy
7:53 PM 64.0 °F 51.1 °F 63% 29.99 in 10.0 mi South 5.8 mph - N/A   Partly Cloudy
8:53 PM 62.1 °F 52.0 °F 70% 30.00 in 10.0 mi South 6.9 mph - N/A   Clear
9:53 PM 60.1 °F 52.0 °F 75% 30.02 in 10.0 mi South 6.9 mph - N/A   Clear
10:53 PM 59.0 °F 53.1 °F 81% 30.02 in 10.0 mi South 5.8 mph - N/A   Partly Cloudy
11:53 PM 57.9 °F 53.1 °F 84% 30.02 in 10.0 mi South 6.9 mph - N/A   Clear